Dewpoint
60 59 60 59 56 54 54 55 55 55 55 55 54 54 53 52 51 51 50 49 51 51 49 48 49 50 48 49 49 50 48 48 48 48 49 48 48 48 48 48 49 49 49 49 50 49 49 49 49 50 51 49 48 49 46 48 49 49 47 47 47 44 42 41 40 41 42 47 45 39 41 37 32 29 26 30 31 34 42 43 41 39 38 37 39
58 58 60 58 55 55 55 54 54 54 53 54 55 55 55 53 52 51 50 51 52 52 48 49 47 47 48 48 49 49 49 49 50 50 48 46 47 50 49 48 49 49 49 48 49 51 49 46 47 49 49 45 46 44 44 42 41 43 47 46 45 47 47 46 45 44 40 43 40 41 40 41 33 34 35 40 39 42 33 41 39 36 36 34 35
58 59 59 58 57 56 55 53 53 53 53 53 53 54 54 54 53 53 51 50 52 50 49 48 46 47 47 47 47 48 49 51 50 49 49 49 50 50 49 48 49 47 46 47 47 47 47 47 46 48 49 45 50 48 46 43 42 43 45 45 45 46 45 46 46 43 40 41 45 37 40 44 40 36 38 40 42 40 38 37 40 38 37 35 32
58 58 58 58 57 56 54 53 53 54 54 52 51 52 52 52 53 53 52 49 49 51 50 48 49 47 45 46 47 48 50 49 49 49 50 49 47 47 48 48 48 47 47 45 46 46 46 47 46 47 49 48 49 49 48 45 46 47 46 47 46 46 48 46 43 44 42 40 41 37 40 42 44 42 36 37 40 39 39 37 40 37 37 37 35
58 58 59 58 58 55 54 54 54 56 55 52 51 51 51 51 52 51 52 51 51 51 51 48 50 46 47 47 48 50 50 48 47 47 50 50 48 48 46 47 48 47 46 45 49 46 47 45 46 49 50 47 47 50 48 47 47 47 48 46 45 48 49 47 46 46 44 42 43 41 41 43 42 41 37 34 36 37 41 40 42 43 44 44 39
58 58 58 58 58 57 56 55 55 56 56 53 51 51 51 50 52 52 52 52 51 51 46 48 49 49 48 47 48 49 50 50 49 50 51 51 49 48 48 49 50 50 47 47 47 47 48 46 49 49 49 48 47 50 50 50 50 48 48 47 46 50 50 48 48 47 45 45 44 43 42 43 42 43 42 37 38 41 43 44 44 45 45 44 45
57 57 58 58 58 58 58 57 56 57 57 56 54 53 52 52 53 53 53 52 52 48 47 47 48 49 49 49 48 48 49 50 51 52 52 52 51 52 51 51 52 51 50 49 48 48 50 50 48 48 49 52 52 50 50 50 51 50 49 49 48 47 48 48 47 47 47 46 46 45 45 45 44 42 42 41 42 43 44 44 43 45 46 43 44
57 57 57 58 58 58 59 59 58 57 57 57 57 55 54 54 54 54 54 52 50 50 49 49 48 48 47 49 49 48 47 48 50 51 50 52 51 52 51 51 51 51 50 52 51 50 53 54 53 53 52 52 51 51 52 51 50 49 50 50 50 50 47 47 47 45 45 46 45 44 44 43 45 45 44 44 44 43 43 44 41 41 42 44 42
57 57 57 57 57 58 58 58 57 57 57 57 56 56 57 55 54 54 54 54 51 48 49 50 49 48 48 48 49 49 48 48 50 49 49 50 51 52 53 51 51 53 53 54 54 55 54 53 51 51 53 52 49 50 53 54 52 50 51 50 49 48 48 47 46 45 46 46 45 46 45 44 44 44 43 42 42 42 43 45 43 43 42 42 42
56 56 57 57 57 57 58 57 58 57 57 56 55 55 55 56 56 55 54 53 53 50 49 49 50 46 47 48 47 50 49 49 50 47 48 49 51 51 54 52 53 54 54 54 53 55 55 53 53 55 51 49 46 43 42 44 50 53 51 51 50 50 48 47 46 46 46 44 44 45 43 43 43 45 44 45 44 43 41 42 40 41 41 41 42
55 55 55 57 56 57 57 56 56 56 56 55 55 55 56 56 55 55 55 55 54 54 54 52 52 51 47 48 48 49 49 50 45 42 43 45 51 53 53 53 54 55 54 54 53 54 54 54 52 53 51 50 46 42 41 41 41 41 42 47 51 49 49 48 47 46 45 46 45 44 43 43 44 44 43 43 44 42 41 40 40 41 40 39 38
54 55 57 57 57 57 56 55 55 55 56 55 55 55 55 55 55 54 54 55 54 54 54 54 53 52 52 51 51 52 51 48 43 41 42 43 49 54 54 54 55 54 53 54 53 53 54 54 52 53 52 52 51 46 43 41 40 39 38 38 37 39 44 48 46 47 45 45 45 44 44 43 43 43 43 42 41 41 41 42 41 40 39 38 38
39 40 41 41 40 50 55 55 55 54 55 55 54 55 54 54 54 55 55 56 54 54 53 54 54 54 53 52 51 53 53 44 44 43 42 44 48 52 55 55 55 54 54 54 53 52 53 53 54 55 55 56 56 52 46 43 40 39 39 38 37 35 34 37 43 47 46 45 45 44 43 44 43 42 43 43 43 41 40 41 39 39 38 37 38
37 38 38 38 39 40 42 48 53 53 54 53 54 54 54 53 53 54 55 55 53 53 53 53 54 54 54 53 53 53 53 46 43 44 46 44 45 50 55 55 54 54 53 53 52 52 53 53 52 53 52 54 53 53 50 44 41 40 41 41 37 37 38 38 38 39 43 44 44 45 45 45 44 43 42 42 42 40 39 38 38 37 36 35 37
37 37 37 38 38 37 38 41 42 43 44 48 49 49 51 51 54 54 54 55 53 53 53 53 52 52 53 53 51 53 53 44 43 45 46 46 45 46 52 54 53 53 53 53 52 50 52 52 50 51 53 53 53 52 52 46 44 45 45 44 43 41 38 38 41 46 47 45 46 46 44 43 41 40 40 41 39 39 38 36 35 34 36 37 35
36 37 36 36 37 37 36 37 39 40 42 43 44 45 44 46 46 52 53 54 53 53 52 52 52 53 53 52 51 50 52 43 43 43 45 45 44 49 51 50 51 53 54 54 54 53 54 51 49 46 48 53 46 45 48 48 48 47 46 42 38 34 35 37 36 40 44 43 40 37 37 38 37 36 38 38 38 38 39 37 38 36 34 33 32
35 36 36 36 36 35 35 36 37 38 41 41 43 44 43 44 44 45 44 48 52 53 54 54 54 54 53 52 52 51 51 44 41 42 43 43 44 50 51 51 51 51 52 53 54 54 53 51 49 45 49 49 40 41 44 46 49 48 45 42 40 35 34 36 36 35 36 36 35 35 35 34 35 35 36 37 36 37 36 34 33 34 33 31 34
36 37 37 36 35 35 35 36 37 39 39 41 43 43 43 43 42 43 43 44 45 47 52 53 54 54 54 53 53 52 51 48 42 42 42 42 45 51 51 51 51 51 50 52 53 53 53 52 52 48 50 47 37 37 40 48 49 47 44 42 39 37 36 37 36 34 36 35 35 34 34 34 34 34 34 34 36 39 33 31 33 34 33 33 31
37 37 36 36 35 36 37 38 38 38 37 38 40 40 41 41 41 42 42 42 43 44 46 51 53 53 53 53 53 52 51 49 43 42 42 42 44 49 50 48 48 49 50 51 52 52 51 50 49 49 49 43 37 36 38 47 49 47 45 43 41 39 37 38 35 35 35 33 33 35 33 34 37 35 37 35 35 39 37 36 35 34 33 34 34
37 36 36 37 37 37 37 38 38 38 37 37 38 38 38 37 37 38 39 41 42 43 44 45 49 53 53 53 52 52 52 51 47 42 42 42 42 48 51 51 50 50 50 50 50 46 44 41 42 38 41 38 37 37 38 43 48 47 45 44 42 41 41 40 39 37 38 38 37 38 38 37 35 37 37 37 38 39 36 38 38 38 36 34 34
37 37 38 37 37 37 37 39 38 38 39 39 39 39 38 38 39 40 41 43 43 43 43 43 44 48 52 53 52 52 53 53 50 42 42 42 41 44 50 51 51 51 50 49 48 44 41 42 40 37 36 36 37 38 40 42 44 47 46 45 44 43 41 40 41 41 41 40 39 39 40 39 38 38 39 39 36 36 36 36 38 38 36 33 32
38 38 37 37 37 37 38 39 39 41 39 38 37 37 38 37 37 38 38 38 39 39 39 40 40 42 46 51 52 52 52 51 53 46 42 42 40 41 48 49 49 51 50 50 47 45 42 42 40 38 36 36 35 35 35 36 37 38 36 36 38 38 39 39 40 40 39 38 38 37 36 35 35 36 38 38 39 39 37 37 37 37 35 34 33
37 37 36 36 37 37 37 36 36 39 38 38 38 37 37 37 37 37 37 37 38 39 40 40 41 41 42 47 51 52 52 51 47 47 42 41 40 40 43 45 42 49 50 49 46 42 42 41 40 36 35 35 34 34 33 33 33 31 32 33 34 35 38 39 39 39 38 37 35 34 34 35 34 35 35 36 36 36 36 36 36 36 35 36 35
36 36 35 35 35 36 36 36 36 36 36 37 37 37 36 36 35 36 35 35 34 34 34 35 35 35 36 39 46 51 52 52 48 45 43 40 41 40 41 42 40 48 49 47 42 41 40 40 38 34 34 34 33 32 32 31 30 31 31 31 33 36 38 37 35 36 34 32 32 33 34 33 34 34 34 35 35 34 35 35 34 35 34 34 34
36 35 35 35 35 35 35 35 35 35 35 36 35 34 33 33 33 34 34 34 34 33 33 33 34 35 37 38 41 47 51 52 51 45 41 40 40 40 40 40 41 42 44 43 41 41 38 36 34 34 33 32 32 32 32 32 32 32 32 34 38 37 38 37 37 35 33 32 34 32 33 33 33 33 33 34 34 34 34 33 33 33 33 33 33
35 35 35 35 35 34 35 35 35 36 35 35 35 34 34 34 35 35 35 35 34 35 34 34 33 33 35 38 40 43 49 50 49 42 41 41 40 39 39 39 41 41 42 42 40 37 34 34 34 33 32 33 33 34 32 33 32 33 35 37 37 36 35 35 34 32 31 32 32 32 32 32 32 33 34 32 31 31 32 32 31 32 32 32 31
36 36 35 35 35 35 35 35 35 35 35 35 35 35 35 34 35 35 35 34 34 33 33 32 32 32 32 35 39 44 47 45 44 42 43 43 43 41 41 42 40 40 41 40 37 35 35 34 34 33 34 33 33 32 32 32 31 32 33 35 35 34 32 31 31 32 32 31 31 32 31 32 33 32 31 31 31 31 32 31 30 30 31 30 29
35 35 35 35 35 35 35 33 35 35 35 35 35 35 35 35 34 34 34 33 33 32 32 32 32 32 32 33 38 44 46 45 44 44 43 44 44 42 43 43 43 42 40 37 35 35 34 33 33 34 33 31 30 29 30 31 31 32 35 34 30 31 32 33 34 34 32 31 31 30 30 31 31 30 31 31 30 30 30 31 30 29 30 29 29
35 35 35 36 36 36 36 35 35 35 35 35 35 35 35 35 35 34 34 34 34 33 33 32 33 32 32 34 39 41 42 45 45 42 40 41 42 43 42 43 42 40 38 36 35 35 35 36 35 35 33 30 30 31 33 36 34 36 38 35 31 30 29 31 31 29 30 29 29 29 28 29 28 29 30 29 29 29 28 29 28 29 29 28 29
35 35 35 36 36 36 36 36 35 35 35 35 35 35 34 35 35 34 34 35 34 34 33 32 33 33 33 35 37 39 41 45 39 36 38 39 39 40 41 40 39 38 36 34 35 33 33 33 34 32 31 30 30 30 32 33 33 34 33 33 31 30 30 31 29 27 29 29 29 29 29 27 27 28 29 28 27 27 28 30 28 28 28 27 29
34 34 35 36 36 36 36 36 36 36 35 35 35 34 34 34 34 34 35 35 35 34 34 34 34 34 34 35 37 36 35 36 35 38 39 38 38 38 38 39 37 36 34 33 32 31 32 32 33 32 31 30 30 31 32 33 33 32 30 31 31 31 30 27 27 29 29 29 29 29 29 28 28 28 28 27 26 27 27 28 28 28 29 29 29
33 35 36 36 36 36 36 35 35 35 35 35 35 35 34 34 35 35 34 34 35 34 34 34 34 34 34 35 37 35 35 35 36 36 38 38 38 38 38 36 36 35 34 33 32 32 32 33 33 33 32 31 30 31 32 32 32 31 30 30 29 29 28 28 28 29 30 30 28 28 28 29 29 28 28 28 27 27 28 27 27 28 29 30 31
33 34 36 36 36 36 35 35 35 36 36 35 36 35 35 34 34 34 34 34 34 34 34 34 34 34 34 35 35 36 36 35 36 36 37 37 36 35 35 35 34 34 35 34 33 33 33 33 33 33 32 31 31 31 33 34 32 30 30 30 29 29 28 28 30 29 30 29 29 27 29 29 29 28 27 27 27 25 26 26 27 29 30 30 31
34 36 36 36 36 36 37 37 37 37 37 37 36 36 35 35 35 34 34 34 34 34 34 34 34 34 35 35 36 36 36 36 36 36 36 36 35 35 34 34 35 35 36 34 33 32 33 33 34 33 35 32 32 32 32 33 32 31 30 30 28 28 27 30 29 30 30 29 29 29 29 27 27 27 25 26 26 26 26 27 28 28 27 28 29
34 35 34 34 36 37 37 37 37 37 37 37 37 36 36 36 35 34 34 34 33 33 33 33 33 35 35 35 35 36 36 36 36 36 36 35 35 35 35 36 35 36 37 37 36 35 34 34 34 35 35 33 33 33 33 32 31 30 30 30 28 29 29 30 29 29 30 30 30 28 28 28 28 27 26 25 26 27 27 26 25 26 26 28 30
35 35 36 36 37 36 36 37 36 36 37 37 37 36 36 35 35 35 34 34 33 33 33 33 33 34 35 35 34 34 35 35 35 36 35 35 35 35 35 34 34 36 36 38 37 37 37 36 34 33 32 32 33 32 32 31 30 30 29 28 28 29 29 29 29 29 29 30 28 29 28 28 27 27 28 28 28 27 25 25 26 27 28 29 30
34 33 34 35 35 36 35 34 35 36 34 34 35 36 36 36 35 35 34 33 32 32 32 33 34 35 35 33 33 34 34 34 35 35 35 35 35 36 35 35 35 36 36 38 38 38 37 36 34 33 33 34 35 32 31 30 30 28 28 26 28 29 29 29 29 29 28 28 27 27 28 27 28 28 28 27 25 25 25 25 26 28 30 30 31
35 35 35 35 35 35 34 34 35 34 34 34 36 36 36 35 35 34 33 32 32 32 32 33 34 33 34 34 36 33 32 34 34 34 35 35 33 31 32 32 35 36 35 37 38 38 37 37 38 35 34 35 34 32 31 31 29 28 28 28 29 29 30 29 29 28 27 26 26 27 28 28 27 27 28 27 24 24 26 27 28 30 30 31 31
35 34 34 34 34 34 33 33 35 35 34 34 35 35 34 34 33 33 32 32 33 33 33 34 35 36 37 33 33 34 33 30 30 31 31 31 31 32 33 34 34 34 36 38 38 38 38 37 35 38 37 35 35 34 32 30 28 27 27 27 28 28 29 28 28 25 26 26 26 26 26 25 24 24 25 25 24 25 27 29 30 30 30 31 31
34 34 34 34 34 34 33 32 33 35 34 34 34 34 33 33 33 33 33 33 34 34 34 34 36 35 33 33 33 33 30 30 30 31 30 31 31 32 33 34 34 35 36 35 36 37 38 38 38 37 37 38 37 33 30 29 29 27 27 26 26 26 25 27 27 27 26 27 26 26 25 24 23 23 23 23 23 25 27 28 30 30 30 31 31
33 33 34 34 34 34 34 32 31 32 33 33 32 32 32 33 33 33 34 34 34 34 34 34 32 32 33 33 34 34 33 32 31 30 31 31 32 32 32 33 35 36 35 35 36 36 36 37 36 35 34 33 33 30 29 28 29 29 28 28 29 29 29 28 28 27 27 27 26 26 24 23 23 23 23 24 29 27 27 29 30 31 31 31 31
32 33 34 34 33 34 34 34 34 33 34 33 34 34 34 34 34 34 34 34 34 33 33 33 33 33 33 35 35 34 34 33 33 32 33 34 34 34 33 34 35 36 35 36 37 35 35 36 33 32 32 31 30 29 29 29 28 28 28 29 29 28 28 28 28 27 26 26 24 24 23 24 25 25 26 30 24 25 27 30 30 31 31 30 31
33 33 34 34 33 33 34 34 34 35 34 34 34 33 34 34 34 34 34 33 33 32 32 31 32 33 34 33 33 33 33 34 33 34 34 34 34 33 34 34 34 36 36 36 36 35 33 31 30 30 30 30 30 28 27 27 28 28 27 28 28 28 28 27 28 27 25 25 25 25 23 23 25 23 23 25 25 28 30 30 31 31 31 30 30
33 32 32 32 32 33 33 34 34 34 34 33 33 33 33 33 33 33 32 32 32 33 33 33 32 33 33 33 32 32 32 34 34 34 34 34 34 34 34 34 34 33 34 34 34 32 30 29 29 29 29 29 30 30 29 28 28 28 28 28 28 28 27 26 25 23 24 23 25 24 24 24 24 23 26 27 26 29 30 31 30 30 30 30 31
32 32 31 32 32 33 33 33 33 34 33 33 33 34 34 36 35 32 31 31 32 33 33 33 33 33 33 33 33 33 33 33 33 33 33 34 33 34 34 34 33 33 32 32 31 31 29 28 28 28 28 28 29 30 30 30 29 29 29 28 27 27 24 23 22 22 23 23 24 24 24 24 23 23 23 24 27 28 30 30 29 30 30 30 30
31 32 31 32 32 33 33 33 32 33 33 33 33 33 34 36 35 33 32 32 33 33 34 34 33 33 33 33 33 33 33 33 33 33 33 33 33 33 33 33 32 32 31 30 30 30 29 28 28 28 29 29 30 29 29 28 28 27 27 26 25 23 22 22 23 24 24 23 23 23 24 25 23 26 28 26 29 30 30 30 29 30 30 30 30
32 30 31 32 32 32 32 32 31 32 32 33 33 33 33 34 34 32 32 33 33 34 34 34 34 33 33 33 33 33 33 33 33 33 33 33 33 33 33 33 32 31 31 31 30 30 30 30 30 30 30 30 29 29 28 27 26 26 25 25 25 24 22 21 23 22 23 24 23 22 22 24 24 25 26 28 29 30 30 30 30 30 30 30 30
32 31 31 31 32 32 32 32 32 31 31 32 33 33 33 33 33 32 31 33 33 34 34 34 34 34 33 33 33 33 33 33 33 33 33 33 33 32 32 32 31 31 31 30 30 30 30 30 30 30 30 30 29 29 28 27 26 26 26 26 25 26 25 24 23 22 22 22 23 23 23 23 24 24 25 26 26 28 28 28 30 30 30 30 30
32 30 30 30 31 32 32 32 32 32 32 32 32 33 33 33 33 33 33 33 33 34 34 34 34 34 34 34 34 34 34 33 33 33 33 33 33 33 32 32 31 31 31 30 30 30 30 30 30 30 30 29 29 29 28 27 26 26 25 25 25 25 26 26 26 26 26 25 23 23 22 23 23 25 26 26 27 26 26 27 29 30 30 30 30
33 31 31 31 31 31 31 32 32 32 32 32 33 33 33 33 33 33 33 33 34 34 34 34 34 33 33 34 34 34 33 33 33 33 33 33 32 32 32 32 31 31 30 30 30 30 30 30 30 29 29 28 28 27 27 26 26 25 25 24 25 25 25 26 26 26 26 25 25 23 23 23 23 23 25 26 26 26 26 29 30 30 30 28 27
33 32 32 30 30 30 31 32 32 32 32 32 32 33 33 33 33 33 33 33 33 34 34 34 34 34 35 34 34 34 33 33 33 33 33 33 33 32 32 31 31 31 30 30 30 30 29 29 28 28 27 27 27 26 25 24 22 22 23 23 24 25 25 25 26 26 26 27 27 26 24 24 24 24 26 26 27 26 27 28 29 29 30 28 27